GW0701 Weather Reports


Display with metric or nautical units.
time (UTC)temp
F
wind
direction
speed
MPH
gust
MPH
rain 1hr
in
rain 24hr
in
rain mn
in
humidity
%
barometer
mb
20260510180657 64 55 1.0 2.0 0.00 0.00 0.00 30 1020.3
20260510180155 64 15 7.0 9.0 0.00 0.00 0.00 31 1020.3
20260510175651 64 349 6.0 9.0 0.00 0.00 0.00 29 1020.1
20260510175147 63 41 6.0 7.0 0.00 0.00 0.00 30 1020.3
20260510174644 64 38 7.0 10.0 0.00 0.00 0.00 31 1020.3
20260510174142 64 9 4.0 6.0 0.00 0.00 0.00 34 1020.4
20260510173637 64 56 1.0 2.0 0.00 0.00 0.00 32 1020.5
20260510173134 64 74 3.0 3.0 0.00 0.00 0.00 31 1020.5
20260510172629 65 80 2.0 3.0 0.00 0.00 0.00 31 1020.5
20260510172126 65 325 2.0 2.0 0.00 0.00 0.00 31 1020.5
20260510171622 64 297 3.0 6.0 0.00 0.00 0.00 33 1020.7
20260510171120 65 312 7.0 10.0 0.00 0.00 0.00 29 1020.6
20260510170616 65 256 4.0 6.0 0.00 0.00 0.00 31 1020.8
20260510170113 65 262 2.0 2.0 0.00 0.00 0.00 35 1020.8
20260510165609 63 63 3.0 3.0 0.00 0.00 0.00 33 1021.0
20260510165104 64 345 2.0 3.0 0.00 0.00 0.00 30 1020.7
20260510164602 64 14 5.0 7.0 0.00 0.00 0.00 32 1020.5
20260510164059 63 30 7.0 9.0 0.00 0.00 0.00 32 1020.8
20260510163554 64 337 4.0 7.0 0.00 0.00 0.00 32 1020.8
20260510163051 62 243 2.0 5.0 0.00 0.00 0.00 35 1020.6
20260510162545 63 29 6.0 8.0 0.00 0.00 0.00 36 1020.5
20260510162042 63 73 1.0 2.0 0.00 0.00 0.00 34 1020.7
20260510161538 61 25 4.0 6.0 0.00 0.00 0.00 35 1020.7
20260510161035 62 258 4.0 5.0 0.00 0.00 0.00 35 1020.9
20260510160532 64 28 1.0 2.0 0.00 0.00 0.00 33 1020.8
20260510160031 63 91 3.0 5.0 0.00 0.00 0.00 35 1020.6
20260510155528 62 255 6.0 10.0 0.00 0.00 0.00 33 1020.9
20260510155025 61 33 3.0 3.0 0.00 0.00 0.00 40 1020.7
20260510154520 62 128 1.0 1.0 0.00 0.00 0.00 37 1020.8
20260510154015 62 249 3.0 3.0 0.00 0.00 0.00 34 1020.8
20260510153510 61 238 3.0 3.0 0.00 0.00 0.00 37 1020.6
20260510153008 62 275 4.0 5.0 0.00 0.00 0.00 34 1020.5
20260510152505 62 323 2.0 2.0 0.00 0.00 0.00 35 1020.5
20260510152001 61 272 4.0 6.0 0.00 0.00 0.00 33 1020.6
20260510151458 61 17 6.0 7.0 0.00 0.00 0.00 37 1020.6
20260510150954 61 85 1.0 2.0 0.00 0.00 0.00 35 1020.9
20260510150450 62 245 1.0 1.0 0.00 0.00 0.00 39 1020.9
20260510145946 62 243 1.0 1.0 0.00 0.00 0.00 41 1020.7
20260510145442 61 263 2.0 2.0 0.00 0.00 0.00 42 1020.6
20260510144939 62 276 1.0 2.0 0.00 0.00 0.00 41 1020.5
20260510144436 60 256 1.0 1.0 0.00 0.00 0.00 41 1020.5
20260510143931 60 281 1.0 1.0 0.00 0.00 0.00 42 1020.6
20260510143426 59 61 2.0 2.0 0.00 0.00 0.00 42 1020.4
20260510142924 58 260 1.0 1.0 0.00 0.00 0.00 44 1020.5
20260510142416 58 348 2.0 2.0 0.00 0.00 0.00 45 1020.4
20260510141912 58 237 2.0 2.0 0.00 0.00 0.00 45 1020.3
20260510141409 57 356 3.0 3.0 0.00 0.00 0.00 46 1019.7
20260510140906 56 65 1.0 1.0 0.00 0.00 0.00 48 1019.9
20260510140401 56 3 3.0 5.0 0.00 0.00 0.00 51 1019.9
20260510135855 56 42 1.0 1.0 0.00 0.00 0.00 50 1019.5
20260510135351 55 346 0.0 1.0 0.00 0.00 0.00 51 1019.7
20260510134849 55 0 2.0 3.0 0.00 0.00 0.00 51 1019.7
20260510134346 54 21 5.0 6.0 0.00 0.00 0.00 50 1019.7
20260510133842 54 44 1.0 2.0 0.00 0.00 0.00 52 1019.7
20260510133338 54 18 2.0 2.0 0.00 0.00 0.00 53 1019.5
20260510132834 53 22 2.0 2.0 0.00 0.00 0.00 53 1019.6
20260510132332 53 26 3.0 3.0 0.00 0.00 0.00 53 1019.4
20260510131829 53 281 1.0 1.0 0.00 0.00 0.00 53 1019.6
20260510131326 52 19 3.0 3.0 0.00 0.00 0.00 56 1019.6
20260510130823 51 47 1.0 2.0 0.00 0.00 0.00 57 1019.3
20260510130320 51 332 2.0 2.0 0.00 0.00 0.00 59 1019.4
20260510125816 50 259 0.0 1.0 0.00 0.00 0.00 59 1019.5
20260510125312 50 358 4.0 6.0 0.00 0.00 0.00 58 1019.7
20260510124809 50 331 1.0 1.0 0.00 0.00 0.00 60 1019.5
20260510124306 49 11 5.0 6.0 0.00 0.00 0.00 59 1019.5
20260510123802 49 349 2.0 2.0 0.00 0.00 0.00 61 1019.5
20260510123257 49 310 2.0 2.0 0.00 0.00 0.00 59 1019.5
20260510122754 48 326 2.0 2.0 0.00 0.00 0.00 62 1019.4
20260510122250 48 351 2.0 2.0 0.00 0.00 0.00 59 1019.2
20260510121747 48 290 1.0 1.0 0.00 0.00 0.00 61 1019.2
20260510121244 48 330 2.0 2.0 0.00 0.00 0.00 61 1019.1
20260510120742 48 40 2.0 2.0 0.00 0.00 0.00 61 1018.9
20260510120238 48 309 1.0 1.0 0.00 0.00 0.00 62 1019.0
20260510115734 48 328 2.0 3.0 0.00 0.00 0.00 62 1018.9
20260510115232 48 0 1.0 2.0 0.00 0.00 0.00 61 1018.6
20260510114727 47 289 0.0 1.0 0.00 0.00 0.00 61 1018.6
20260510114224 47 221 2.0 2.0 0.00 0.00 0.00 63 1018.6
20260510113720 46 279 1.0 1.0 0.00 0.00 0.00 63 1018.6
20260510113217 45 250 1.0 1.0 0.00 0.00 0.00 64 1018.5
20260510112712 45 266 1.0 1.0 0.00 0.00 0.00 65 1018.3
20260510112210 45 225 1.0 1.0 0.00 0.00 0.00 66 1018.3
20260510111705 45 251 2.0 2.0 0.00 0.00 0.00 66 1018.2
20260510111202 44 219 1.0 1.0 0.00 0.00 0.00 68 1017.9
20260510110656 44 230 0.0 0.0 0.00 0.00 0.00 67 1018.0
20260510110155 44 266 1.0 1.0 0.00 0.00 0.00 67 1018.0
20260510105649 44 261 1.0 1.0 0.00 0.00 0.00 67 1018.1
20260510105144 44 256 0.0 0.0 0.00 0.00 0.00 66 1018.1
20260510104641 45 262 1.0 1.0 0.00 0.00 0.00 66 1017.9
20260510104138 45 242 0.0 0.0 0.00 0.00 0.00 66 1017.8
20260510103635 45 238 1.0 1.0 0.00 0.00 0.00 66 1017.8
20260510103131 45 247 0.0 0.0 0.00 0.00 0.00 66 1017.8
20260510102626 45 241 0.0 1.0 0.00 0.00 0.00 65 1017.6
20260510102122 45 225 1.0 1.0 0.00 0.00 0.00 66 1017.4
20260510101620 45 242 0.0 1.0 0.00 0.00 0.00 66 1017.3
20260510101118 45 252 0.0 1.0 0.00 0.00 0.00 65 1017.4
20260510100614 46 285 0.0 1.0 0.00 0.00 0.00 65 1017.3
20260510100112 46 264 1.0 1.0 0.00 0.00 0.00 65 1017.3
20260510095607 46 246 1.0 1.0 0.00 0.00 0.00 65 1017.1
20260510095102 46 226 1.0 2.0 0.00 0.00 0.00 64 1016.8
20260510094601 47 285 0.0 1.0 0.00 0.00 0.00 64 1017.0
20260510094057 47 291 0.0 0.0 0.00 0.00 0.00 63 1016.9
20260510093553 47 318 2.0 2.0 0.00 0.00 0.00 63 1016.8
20260510093050 47 326 1.0 1.0 0.00 0.00 0.00 64 1016.7
20260510092547 47 283 1.0 1.0 0.00 0.00 0.00 64 1016.5
20260510092046 47 243 0.0 0.0 0.00 0.00 0.00 63 1016.6
20260510091544 48 238 1.0 1.0 0.00 0.00 0.00 62 1016.3
20260510091039 48 249 0.0 1.0 0.00 0.00 0.00 62 1016.5
20260510090537 48 267 0.0 0.0 0.00 0.00 0.00 61 1016.5
20260510090033 49 255 0.0 1.0 0.00 0.00 0.00 60 1016.3
20260510085533 49 241 1.0 1.0 0.00 0.00 0.00 60 1016.1
20260510085029 49 243 0.0 0.0 0.00 0.00 0.00 60 1016.1
20260510084526 49 289 0.0 0.0 0.00 0.00 0.00 59 1015.6
20260510084023 50 5 1.0 1.0 0.00 0.00 0.00 59 1015.5
20260510083519 50 9 1.0 2.0 0.00 0.00 0.00 58 1015.4
20260510083015 50 49 1.0 1.0 0.00 0.00 0.00 58 1015.3
20260510082513 50 296 0.0 1.0 0.00 0.00 0.00 58 1015.3
20260510082013 50 329 2.0 2.0 0.00 0.00 0.00 58 1015.2
20260510081508 50 304 2.0 2.0 0.00 0.00 0.00 58 1015.1
20260510081005 50 325 0.0 1.0 0.00 0.00 0.00 58 1015.1
20260510080503 51 339 3.0 3.0 0.00 0.00 0.00 57 1015.2
20260510080000 51 343 1.0 1.0 0.00 0.00 0.00 56 1015.0
20260510075458 51 340 2.0 2.0 0.00 0.00 0.00 56 1014.9
20260510074954 51 133 0.0 0.0 0.00 0.00 0.00 56 1014.9
20260510074452 52 153 0.0 1.0 0.00 0.00 0.00 54 1015.0
20260510073947 52 11 1.0 1.0 0.00 0.00 0.00 52 1014.7
20260510073443 52 72 2.0 3.0 0.00 0.00 0.00 52 1014.7
20260510072940 52 15 2.0 2.0 0.00 0.00 0.00 53 1014.9
20260510072437 52 317 1.0 1.0 0.00 0.00 0.00 54 1014.9
20260510071932 52 281 0.0 0.0 0.00 0.00 0.00 53 1014.9
20260510071429 53 312 1.0 1.0 0.00 0.00 0.00 54 1014.8
20260510070927 53 355 0.0 0.0 0.00 0.00 0.00 54 1014.8
20260510070424 53 280 0.0 1.0 0.00 0.00 0.00 53 1014.9
20260510065920 53 308 1.0 1.0 0.00 0.00 0.00 55 1014.9
20260510065416 53 315 1.0 1.0 0.00 0.00 0.00 53 1014.8
20260510064913 53 336 2.0 2.0 0.00 0.00 0.00 53 1014.6
20260510064411 54 294 1.0 1.0 0.00 0.00 0.00 58 1014.8
20260510063907 54 288 0.0 0.0 0.00 0.00 0.00 60 1014.8
20260510063403 55 316 0.0 0.0 0.00 0.00 0.00 49 1014.9
20260510062901 55 18 1.0 1.0 0.00 0.00 0.00 52 1014.9
20260510062355 55 300 1.0 1.0 0.00 0.00 0.00 51 1014.8
20260510061851 55 288 0.0 1.0 0.00 0.00 0.00 54 1014.8
20260510061348 55 284 0.0 1.0 0.00 0.00 0.00 55 1014.5
20260510060844 55 276 1.0 1.0 0.00 0.00 0.00 56 1014.7
20260510060341 54 233 0.0 0.0 0.00 0.00 0.00 56 1014.6
20260510055838 55 350 2.0 2.0 0.00 0.00 0.00 62 1014.3
20260510055336 55 44 0.0 0.0 0.00 0.00 0.00 62 1014.4
20260510054831 56 45 1.0 1.0 0.00 0.00 0.00 51 1014.7
20260510054326 56 240 0.0 1.0 0.00 0.00 0.00 54 1014.4
20260510053822 56 221 0.0 1.0 0.00 0.00 0.00 54 1014.3
20260510053317 56 337 3.0 3.0 0.00 0.00 0.00 53 1014.3
20260510052814 57 252 0.0 0.0 0.00 0.00 0.00 54 1014.1
20260510052310 57 249 0.0 0.0 0.00 0.00 0.00 53 1013.9
20260510051806 57 234 0.0 0.0 0.00 0.00 0.00 54 1013.7
20260510051303 58 248 0.0 1.0 0.00 0.00 0.00 52 1013.6
20260510050800 58 252 0.0 1.0 0.00 0.00 0.00 50 1013.5
20260510050256 59 275 0.0 0.0 0.00 0.00 0.00 51 1013.4
20260510045754 59 356 2.0 2.0 0.00 0.01 0.01 48 1013.2
20260510045250 60 340 2.0 2.0 0.00 0.01 0.01 49 1013.2
20260510044747 60 270 0.0 1.0 0.00 0.01 0.01 52 1013.1
20260510044245 61 36 2.0 2.0 0.00 0.01 0.01 48 1012.9
20260510043740 61 13 1.0 2.0 0.00 0.01 0.01 48 1012.8
20260510043237 61 346 4.0 7.0 0.00 0.01 0.01 49 1013.0
20260510042734 61 29 1.0 2.0 0.00 0.01 0.01 50 1012.9
20260510042229 62 274 1.0 1.0 0.00 0.01 0.01 51 1013.2
20260510041727 62 56 2.0 3.0 0.00 0.01 0.01 51 1012.7
20260510041224 62 359 2.0 2.0 0.00 0.01 0.01 50 1013.0
20260510040721 63 263 0.0 0.0 0.00 0.01 0.01 48 1013.0
20260510040218 63 309 1.0 1.0 0.00 0.01 0.01 47 1012.8
20260510035713 63 343 5.0 7.0 0.00 0.01 0.01 45 1012.8
20260510035209 63 147 2.0 2.0 0.00 0.01 0.01 47 1012.7
20260510034705 64 52 1.0 1.0 0.00 0.01 0.01 48 1012.6
20260510034203 63 343 4.0 5.0 0.00 0.01 0.01 49 1012.5
20260510033659 63 88 3.0 3.0 0.00 0.01 0.01 50 1012.4
20260510033157 63 42 5.0 8.0 0.00 0.01 0.01 52 1012.4
20260510032653 63 334 5.0 6.0 0.00 0.01 0.01 52 1012.3
20260510032149 63 303 1.0 1.0 0.00 0.01 0.01 54 1012.3
20260510031643 62 253 1.0 1.0 0.00 0.01 0.01 56 1011.8
20260510031141 62 254 1.0 1.0 0.00 0.01 0.01 57 1012.0
20260510030635 62 265 1.0 1.0 0.00 0.01 0.01 54 1011.9
20260510030133 63 232 0.0 0.0 0.00 0.01 0.01 59 1011.6
20260510025630 63 266 0.0 0.0 0.00 0.01 0.01 62 1011.5
20260510025127 63 267 0.0 1.0 0.00 0.01 0.01 53 1011.3
20260510024623 64 335 3.0 3.0 0.00 0.01 0.01 52 1011.0
20260510024120 63 236 0.0 1.0 0.00 0.01 0.01 55 1011.2
20260510023616 64 292 1.0 1.0 0.00 0.01 0.01 51 1011.1
20260510023114 64 213 0.0 1.0 0.00 0.01 0.01 53 1010.9
20260510022613 63 299 1.0 2.0 0.00 0.01 0.01 54 1010.9
20260510022108 64 329 0.0 1.0 0.00 0.01 0.01 55 1010.8
20260510021604 64 6 2.0 2.0 0.00 0.01 0.01 53 1010.7
20260510021102 64 262 0.0 0.0 0.00 0.01 0.01 51 1010.7
20260510020556 65 335 2.0 2.0 0.00 0.01 0.01 53 1010.7
20260510020051 65 321 1.0 2.0 0.00 0.01 0.01 52 1010.5
20260510015548 65 269 0.0 0.0 0.00 0.01 0.01 53 1010.6
20260510015044 66 271 0.0 1.0 0.00 0.01 0.01 53 1010.5
20260510014540 66 332 0.0 2.0 0.00 0.01 0.01 49 1010.4
20260510014038 66 23 3.0 3.0 0.00 0.01 0.01 50 1010.2
20260510013532 66 206 0.0 1.0 0.00 0.01 0.01 50 1010.2
20260510013028 66 358 3.0 3.0 0.00 0.01 0.01 48 1010.0
20260510012522 66 35 2.0 2.0 0.00 0.01 0.01 49 1010.2
20260510012019 66 57 0.0 1.0 0.00 0.01 0.01 49 1010.0
20260510011518 66 207 2.0 2.0 0.00 0.01 0.01 49 1010.0
20260510011014 67 326 3.0 3.0 0.00 0.01 0.01 49 1009.6
20260510010512 67 8 1.0 2.0 0.00 0.01 0.01 48 1009.5
20260510010008 67 328 4.0 6.0 0.00 0.01 0.01 48 1009.2
20260510005504 67 41 3.0 5.0 0.00 0.01 0.01 48 1009.3
20260510005002 67 346 3.0 3.0 0.00 0.01 0.01 50 1008.9
20260510004459 67 268 1.0 1.0 0.00 0.01 0.01 50 1009.1
20260510003957 68 357 4.0 6.0 0.00 0.01 0.01 50 1009.0
20260510003453 68 43 2.0 2.0 0.00 0.01 0.01 49 1008.8
20260510002948 68 3 3.0 6.0 0.00 0.01 0.01 48 1008.7
20260510002445 68 303 1.0 3.0 0.00 0.01 0.01 49 1008.4
20260510001941 69 346 7.0 8.0 0.00 0.01 0.01 46 1008.4
20260510001439 69 358 4.0 6.0 0.00 0.01 0.01 47 1008.1
20260510000937 69 4 6.0 8.0 0.00 0.01 0.01 46 1008.1
20260510000433 70 4 5.0 7.0 0.00 0.01 0.01 46 1008.2
20260509235929 70 74 3.0 5.0 0.00 0.01 0.01 45 1008.1
20260509235426 71 71 1.0 2.0 0.00 0.01 0.01 45 1008.1
20260509234922 71 6 5.0 7.0 0.00 0.01 0.01 43 1007.9
20260509234419 72 315 10.0 11.0 0.00 0.01 0.01 42 1007.9
20260509233917 73 0 8.0 13.0 0.00 0.01 0.01 40 1007.9
20260509233414 73 23 6.0 8.0 0.00 0.01 0.01 39 1007.9
20260509232910 75 66 6.0 9.0 0.00 0.01 0.01 35 1007.5
20260509232408 75 3 2.0 3.0 0.00 0.01 0.01 34 1007.6
20260509231904 76 110 4.0 9.0 0.00 0.01 0.01 31 1007.4
20260509231401 76 111 3.0 5.0 0.00 0.01 0.01 32 1007.1
20260509230859 76 9 3.0 7.0 0.00 0.01 0.01 31 1007.1
20260509230355 77 96 1.0 1.0 0.00 0.01 0.01 33 1007.1
20260509225851 76 124 1.0 1.0 0.00 0.01 0.01 33 1007.1
20260509225348 77 44 4.0 6.0 0.00 0.01 0.01 32 1007.0
20260509224844 77 262 0.0 1.0 0.00 0.01 0.01 36 1006.8
20260509224340 77 27 3.0 5.0 0.00 0.01 0.01 32 1006.8
20260509223837 77 349 3.0 3.0 0.00 0.01 0.01 33 1006.8
20260509223334 78 270 3.0 6.0 0.00 0.01 0.01 32 1006.7
20260509222831 78 216 1.0 1.0 0.00 0.01 0.01 34 1006.7
20260509222326 78 41 3.0 6.0 0.00 0.01 0.01 29 1006.7
20260509221821 78 0 3.0 3.0 0.00 0.01 0.01 31 1006.6
20260509221320 79 338 5.0 6.0 0.00 0.01 0.01 30 1006.6
20260509220820 79 252 2.0 2.0 0.00 0.01 0.01 30 1006.6
20260509220316 79 285 1.0 1.0 0.00 0.01 0.01 29 1006.4
20260509215812 79 296 4.0 6.0 0.00 0.01 0.01 30 1006.6
20260509215309 80 255 3.0 3.0 0.00 0.01 0.01 31 1006.4
20260509214805 81 288 2.0 2.0 0.00 0.01 0.01 30 1006.4
20260509214303 81 238 3.0 5.0 0.00 0.01 0.01 29 1006.4
20260509213759 82 264 2.0 3.0 0.00 0.01 0.01 32 1006.4
20260509213255 80 354 1.0 2.0 0.00 0.01 0.01 30 1006.3
20260509212753 80 259 8.0 10.0 0.00 0.01 0.01 28 1006.3
20260509212250 81 242 1.0 2.0 0.00 0.01 0.01 28 1006.6
20260509211745 80 248 5.0 7.0 0.00 0.01 0.01 29 1006.6
20260509211242 81 242 1.0 2.0 0.00 0.01 0.01 32 1006.6
20260509210738 81 274 3.0 3.0 0.00 0.01 0.01 28 1006.4
20260509210236 82 226 4.0 6.0 0.00 0.01 0.01 28 1006.7
20260509205735 81 271 3.0 5.0 0.00 0.01 0.01 29 1006.6
20260509205230 81 341 2.0 6.0 0.00 0.01 0.01 29 1006.6
20260509204726 81 251 3.0 5.0 0.00 0.01 0.01 27 1006.6
20260509204223 81 278 2.0 2.0 0.00 0.01 0.01 29 1006.7
20260509203719 80 240 4.0 5.0 0.00 0.01 0.01 29 1006.7
20260509203217 80 287 4.0 5.0 0.00 0.01 0.01 31 1006.8
20260509202712 80 277 3.0 5.0 0.00 0.01 0.01 31 1006.9
20260509202208 79 257 3.0 5.0 0.00 0.01 0.01 30 1006.9
20260509201703 80 279 3.0 3.0 0.00 0.01 0.01 30 1007.0
20260509201200 81 220 5.0 6.0 0.00 0.01 0.01 30 1007.1
20260509200657 80 244 2.0 2.0 0.00 0.01 0.01 30 1007.0
20260509200152 80 248 7.0 8.0 0.00 0.01 0.01 28 1006.9
20260509195648 80 236 2.0 2.0 0.00 0.01 0.01 29 1007.0
20260509195143 80 339 3.0 5.0 0.00 0.01 0.01 33 1007.2
20260509194637 80 254 7.0 9.0 0.00 0.01 0.01 29 1007.2
20260509194134 80 296 2.0 2.0 0.00 0.01 0.01 34 1007.0
20260509193630 79 246 1.0 2.0 0.00 0.01 0.01 32 1007.1
20260509193126 79 252 5.0 6.0 0.00 0.01 0.01 32 1007.2
20260509192623 80 220 4.0 5.0 0.00 0.01 0.01 29 1007.0
20260509192118 79 248 2.0 2.0 0.00 0.01 0.01 30 1007.2
20260509191612 79 260 5.0 7.0 0.00 0.01 0.01 30 1007.3
20260509191109 79 249 6.0 8.0 0.00 0.01 0.01 31 1007.3
20260509190606 79 242 5.0 6.0 0.00 0.01 0.01 29 1007.3
20260509185601 79 228 7.0 9.0 0.00 0.01 0.01 29 1007.1
20260509185056 80 279 6.0 9.0 0.00 0.01 0.01 31 1007.2
20260509184555 78 251 6.0 7.0 0.00 0.01 0.01 29 1007.2
20260509184051 78 239 2.0 2.0 0.00 0.01 0.01 31 1007.1
20260509183547 78 298 5.0 7.0 0.00 0.01 0.01 30 1007.4
20260509183043 78 267 5.0 8.0 0.00 0.01 0.01 34 1007.3
20260509182539 78 249 6.0 8.0 0.00 0.01 0.01 30 1007.4
20260509182036 78 268 3.0 3.0 0.00 0.01 0.01 35 1007.3
20260509181535 77 255 2.0 2.0 0.00 0.01 0.01 34 1007.2
20260509181031 77 201 1.0 2.0 0.00 0.01 0.01 39 1007.2